World > North America > United States > Illinois

Hourly Hopewell, IL Regional Weather

Feedback E-mail the Weather

Quick WX

Hopewell, IL Weather Maps

°F °C°F °C
Hopewell Weather Map
UTC Time: 6/30/2022, 22:29
Your Time:

Hopewell, IL Regional Weather

Expires:202206302300;;461390
ASUS43 KLOT 302209
RWRIL 

ILLINOIS REGIONAL WEATHER ROUNDUP
NATIONAL WEATHER SERVICE CHICAGO/ROMEOVILLE IL
500 PM CDT THU JUN 30 2022

NOTE: "FAIR" INDICATES FEW OR NO CLOUDS BELOW 12,000 FEET WITH NO
SIGNIFICANT WEATHER AND/OR OBSTRUCTIONS TO VISIBILITY.

* THESE STATIONS ARE NOT UNDER NWS QUALITY CONTROL. THEY ALSO MAY NOT
  REPORT WEATHER SUCH AS PRECIPITATION OR FOG.


ILZ028>032-037-038-041>044-048-051>054-059>061-302300-
CENTRAL ILLINOIS
  
CITY           SKY/WX    TMP DP  RH WIND       PRES   REMARKS
PONTIAC        MOSUNNY   87  58  38 S14       29.99F HX  86           
BLOOMINGTON    SUNNY     86  59  39 SW14      30.01F HX  85           
DECATUR        SUNNY     90  59  35 SW14G23   30.01S HX  89           
PEORIA         MOSUNNY   87  57  35 S14       29.97F HX  86           
LACON*         PTSUNNY   84  66  54 S6        29.96F HX  86           
LINCOLN*       SUNNY     87  61  41 S9        29.99F HX  87           
SPRINGFIELD    SUNNY     88  58  36 S12G21    29.99F HX  87           
TAYLORVILLE    SUNNY     86  60  41 S10       30.01S HX  86           
$$


SKY/WX - Weather  TMP - Temperature  DP - Dew Point  RH - Humidity
WIND - Wind Direction/Speed PRES - Barometric Pressure VSB - Visibility
WCI - Wind Chill Index E13G22 Wind - East Wind 13 mph/Gusts of 22 mph

Trending Headlines

Hopewell Radar Loop



Hopewell Quick Facts


National Two Day Weather Forecast


E-mail the Hopewell Weather Forecast

Voice your opinion or tell us about page issues...